Regional Weather Roundup
Issued by NWS

Home | Current Version | Previous Version | Graphics & Text | Print | Product List | Glossary On
Versions: 1 2 3 4 5 6 7 8 9 10 11 12 13 14 15 16 17 18 19 20 21 22 23 24 25 26 27 28 29 30 31 32 33 34 35 36 37 38 39 40 41 42 43 44 45 46 47 48 49 50
000
ASUS45 KBOI 010210
RWRID

IDAHO REGIONAL WEATHER ROUNDUP
NATIONAL WEATHER SERVICE BOISE ID
800 PM MDT MON AUG 31 2015

NOTE: "FAIR" INDICATES FEW OR NO CLOUDS BELOW 12000 FEET
WITH NO SIGNIFICANT WEATHER AND/OR OBSTRUCTIONS TO VISIBILITY

IDZ012-014-010300-
SOUTHWEST IDAHO


CITY           SKY/WX    TMP DP  RH WIND       PRES   REMARKS
BOISE          PTCLDY    78  42  27 NW8       29.89F
CALDWELL         N/A     77  45  31 CALM      29.89F
MOUNTAIN HOME  PTCLDY    82  36  19 NW6       29.88F
$$

IDZ016-017-010300-
SOUTHCENTRAL IDAHO


CITY           SKY/WX    TMP DP  RH WIND       PRES   REMARKS
BURLEY         PTCLDY    67  39  35 W5        29.95F
JEROME         CLEAR     73  39  29 SW3       29.95F
TWIN FALLS     CLEAR     74  37  26 CALM      29.96F
$$

IDZ019>023-010300-
SOUTHEAST IDAHO


CITY           SKY/WX    TMP DP  RH WIND       PRES   REMARKS
IDAHO FALLS    PTCLDY    73  31  21 S9        29.99F
POCATELLO      CLEAR     71  32  23 SW5       29.98F
REXBURG        CLEAR     70  32  24 S8        29.99F
$$

IDZ006-010-011-018-031-032-010300-
CENTRAL IDAHO MOUNTAINS


CITY           SKY/WX    TMP DP  RH WIND       PRES   REMARKS
MCCALL         CLEAR     66  37  34 S9        30.00F
HAILEY         PTCLDY    70  34  26 SW9       30.03F
STANLEY          N/A     65  33  30 SW6       30.08F
SALMON         CLEAR     66  46  48 SW5       29.86S
CHALLIS        PTCLDY    75  29  18 SW8       29.95S
$$

IDZ002-004-006-007-026-010300-
NORTHERN IDAHO


CITY           SKY/WX    TMP DP  RH WIND       PRES   REMARKS
LEWISTON       CLOUDY    76  44  32 NW8       29.86S
LOWELL           N/A     63  56  78 CALM      29.87S
COEUR D`ALENE  CLOUDY    68  45  42 W6        29.89S
MULLAN PASS    MOCLDY    50  40  68 SW5       30.02F
$$



USA.gov is the U.S. government's official web portal to all federal, state and local government web resources and services.